Starlink 34029

operational
NORAD ID: 63805 Int'l Des: 2025-092 Owner: SPXS Country: US Constellation: starlink
LEOCIRCULAR

About Starlink 34029

Description loading...

Live Position

Loading 3D Globe...

Upcoming Passes

Altitude History

Altitude vs Time

uPlot chart will show altitude changes over time

Two-Line Element Set

1 63805U 25092B 25350.53839784 .00018257 00000-0 67116-3 0 9999
2 63805 43.0017 282.4976 0000895 282.4065 77.6686 15.27588100 35898
Epoch: Dec 16, 2025 • Age: 22 hours

Current Status

Altitude 492.4 km
Velocity 7.62 km/s
Sub-Earth Point -35.12°S, 17.15°W
Launch Date May 4, 2025
Age 0.6 years
Type internet

Technical Details

Classification Payload
Mass 575.00 kg
Dry Mass 530.00 kg
Total Mass 575.00 kg
Length 0.30 m
Diameter 4.10 m
Span 29.00 m
Shape Box + pan
Manufacturer SPXS
Bus Type Starlink V2MO
Phase Status In Orbit
Owner/State SPXS/US

Large Constellations

Loading constellations...